Weather Roundup
Issued by NWS

Home | Current Version | Previous Version | Graphics & Text | Print | Product List | Glossary Off
Versions: 1 2 3 4 5 6 7 8 9 10 11 12 13 14 15 16 17 18 19 20 21 22 23 24 25 26 27 28 29 30 31 32 33 34 35 36 37 38 39 40 41 42 43 44 45 46 47 48 49 50

000
NZUS93 KARX 011510
HRRWXR

CURRENT HOURLY OBSERVATIONS ACROSS
MUCH OF THE UPPER MISSISSIPPI VALLEY
NATIONAL WEATHER SERVICE LA CROSSE WI
1000 AM CDT WED OCT 01 2014


...SOUTHEAST MINNESOTA...


CITY           SKY/WX    TMP DP  RH WIND       PRES   REMARKS
ROCHESTER      RAIN      49  48  97 SE14      29.85F FOG
ROCHESTER/MAYO CLOUDY    48  47  96 SE12      29.86F
WINONA         RAIN      50  48  93 SE7       29.90F
AUSTIN         RAIN      50  48  93 SE8G16    29.82F
ALBERT LEA     RAIN      52  52 100 SE17      29.81F
DODGE CENTER   HVY RAIN  50  48  93 SE15      29.83F
PRESTON        CLOUDY    49  47  94 SE12G18   29.87F FOG
OWATONNA       RAIN      52  48  87 SE9G16    29.82F
FARIBAULT      RAIN      50  48  93 SE8       29.83S
$$

...ELSEWHERE IN MINNESOTA...


CITY           SKY/WX    TMP DP  RH WIND       PRES   REMARKS
MINNEAPOLIS    RAIN      50  48  93 SE14      29.83F FOG
INTNL FALLS    CLOUDY    52  47  83 S9G18     29.73S
DULUTH         LGT RAIN  48  45  89 SE10      29.86S FOG
RED WING       RAIN      50  48  93 SE12      29.86F
REDWOOD FALLS  CLOUDY    59  55  87 S13       29.76F
MANKATO        CLOUDY    52  46  82 SE17      29.80S
WORTHINGTON    CLOUDY    57  57 100 SE6       29.78R
FAIRMONT       CLOUDY    54  48  82 SE10      29.80R
$$

...SOUTHWEST WISCONSIN...


CITY           SKY/WX    TMP DP  RH WIND       PRES   REMARKS
LA CROSSE      CLOUDY    56  48  74 SE13      29.91F
PRAIRIE DU CHI CLOUDY    55  47  74 E7        29.92S
BOSCOBEL       CLOUDY    57  48  72 VRB6      29.94F
LONE ROCK      MOSUNNY   61  47  59 SE14      29.96F
PLATTEVILLE    CLOUDY    56  49  78 SE14      29.94F
FORT MC COY    CLOUDY    53  47  79 E6        29.93F
CAMP DOUGLAS   CLOUDY    54  54 100 SE10      29.95F
VIROQUA        CLOUDY    52  49  90 SE9       29.92F
WIS DELLS      PTSUNNY   56  47  72 SE10      29.97F
$$

...ELSEWHERE IN WISCONSIN...


CITY           SKY/WX    TMP DP  RH WIND       PRES   REMARKS
MILWAUKEE      PTSUNNY   59  50  72 S12       30.03R
MADISON        MOSUNNY   58  47  66 SE16      29.99S
GREEN BAY      CLOUDY    54  52  93 SE8       30.03R
EAU CLAIRE     RAIN      48  46  93 SE9       29.91F FOG
BLACK RVR FLS  CLOUDY    50  50  98 E5        29.94F
MEDFORD        CLOUDY    49  45  88 SE9       29.95F
WAUSAU         CLOUDY    51  47  86 SE9       29.97F
WIS RAPIDS     CLOUDY    54  47  77 SE13G18   29.98F
MARSHFIELD     CLOUDY    52  47  83 SE13      29.96F
RICE LAKE      RAIN      47  45  93 SE13      29.92S
$$

...NORTHEAST IOWA...


CITY           SKY/WX    TMP DP  RH WIND       PRES   REMARKS
DECORAH        CLOUDY    52  48  87 SE12      29.88F
MASON CITY     CLOUDY    52  51  97 SE14      29.83S
CHARLES CITY   LGT RAIN  52  50  93 SE10G16   29.85S
OELWEIN        CLOUDY    54  50  87 SE15G21   29.84F
$$

...ELSEWHERE IN IOWA...


CITY           SKY/WX    TMP DP  RH WIND       PRES   REMARKS
DES MOINES     CLOUDY    62  59  90 S9        29.80S FOG
IOWA CITY      CLOUDY    57  51  80 E13       29.87F
FORT DODGE     CLOUDY    57  54  88 S6        29.80R
$$

...NORTHERN ILLINOIS...


CITY           SKY/WX    TMP DP  RH WIND       PRES   REMARKS
CHICAGO-OHARE  MOSUNNY   59  47  64 S10       30.02S
CHICAGO-MIDWAY MOSUNNY   61  49  64 VRB6      30.02S
MOLINE         NOT AVBL
ROCKFORD       MOSUNNY   59  48  67 SE12      30.02S
PEORIA         SUNNY     64  53  67 SE6       29.95F
$$

NOTE: "FAIR" INDICATES FEW OR NO CLOUDS BELOW 12,000 FEET WITH NO
SIGNIFICANT WEATHER AND/OR OBSTRUCTIONS TO VISIBILITY. WIND
SPEEDS ARE IN MILES-PER-HOUR.



USA.gov is the U.S. government's official web portal to all federal, state and local government web resources and services.